Torna al catalogo

DMSP 5D-2 F13 DEB

AttivoSSO
NORAD 40412·DEBRIS·🇺🇸 United States

Lanciato Mar 24, 1995 da Vandenberg Space Force Base

Loading…

Prossimi Passaggi (prossime 24 ore)

TLE

AggiornatoSource: Space-Track

Epoca: Sep 14, 2026, 06:06 UTC

1 40412U 95015Z   26257.25484282  .00000141  00000-0  84725-4 0  9994
2 40412  98.7053 270.5632 0019930 111.5849 248.7454 14.21037328598581

Traccia DMSP 5D-2 F13 DEB in tempo reale con AllMySat

Download on the App Store